| time (UTC) | temp F | wind direction | speed MPH | gust MPH | rain 1hr in | rain 24hr in | rain mn in | humidity % | barometer mb |
| 20260504195102 | 72 | 284 | 6.0 | 13.0 | 0.00 | 0.02 | 0.00 | 47 | 1002.2 |
| 20260504194603 | 72 | 264 | 9.0 | 15.0 | 0.00 | 0.02 | 0.00 | 46 | 1002.3 |
| 20260504194102 | 72 | 270 | 7.0 | 14.0 | 0.00 | 0.02 | 0.00 | 49 | 1002.4 |
| 20260504193603 | 71 | 277 | 9.0 | 18.0 | 0.00 | 0.02 | 0.00 | 48 | 1002.4 |
| 20260504193103 | 71 | 280 | 6.0 | 16.0 | 0.00 | 0.02 | 0.00 | 48 | 1002.6 |
| 20260504192603 | 71 | 259 | 10.0 | 23.0 | 0.00 | 0.02 | 0.00 | 48 | 1002.7 |
| 20260504191103 | 71 | 278 | 6.0 | 18.0 | 0.00 | 0.02 | 0.00 | 52 | 1002.9 |
| 20260504190602 | 70 | 281 | 6.0 | 14.0 | 0.00 | 0.02 | 0.00 | 51 | 1003.0 |
| 20260504185603 | 70 | 276 | 8.0 | 16.0 | 0.00 | 0.02 | 0.00 | 53 | 1003.1 |
| 20260504185103 | 70 | 254 | 7.0 | 22.0 | 0.00 | 0.02 | 0.00 | 54 | 1003.2 |
| 20260504184602 | 70 | 252 | 9.0 | 21.0 | 0.00 | 0.02 | 0.00 | 51 | 1003.2 |
| 20260504184102 | 70 | 284 | 8.0 | 18.0 | 0.00 | 0.02 | 0.00 | 56 | 1003.3 |
| 20260504183602 | 70 | 276 | 10.0 | 20.0 | 0.00 | 0.02 | 0.00 | 53 | 1003.4 |
| 20260504183102 | 69 | 286 | 10.0 | 21.0 | 0.00 | 0.02 | 0.00 | 52 | 1003.3 |
| 20260504182602 | 70 | 268 | 5.0 | 20.0 | 0.00 | 0.02 | 0.00 | 55 | 1003.5 |
| 20260504182103 | 69 | 255 | 7.0 | 14.0 | 0.00 | 0.02 | 0.00 | 55 | 1003.5 |
| 20260504181603 | 69 | 278 | 11.0 | 18.0 | 0.00 | 0.02 | 0.00 | 55 | 1003.6 |
| 20260504181103 | 68 | 282 | 8.0 | 22.0 | 0.00 | 0.02 | 0.00 | 56 | 1003.5 |
| 20260504180103 | 68 | 270 | 9.0 | 17.0 | 0.00 | 0.02 | 0.00 | 55 | 1003.7 |
| 20260504175604 | 68 | 274 | 7.0 | 16.0 | 0.00 | 0.02 | 0.00 | 57 | 1003.8 |
| 20260504174603 | 66 | 270 | 8.0 | 20.0 | 0.00 | 0.02 | 0.00 | 56 | 1003.9 |
| 20260504174103 | 66 | 285 | 11.0 | 20.0 | 0.00 | 0.02 | 0.00 | 59 | 1004.0 |
| 20260504173602 | 66 | 281 | 9.0 | 20.0 | 0.00 | 0.02 | 0.00 | 57 | 1004.2 |
| 20260504173102 | 66 | 281 | 9.0 | 16.0 | 0.00 | 0.02 | 0.00 | 57 | 1004.1 |
| 20260504172602 | 66 | 254 | 6.0 | 20.0 | 0.00 | 0.02 | 0.00 | 58 | 1004.1 |
| 20260504172102 | 66 | 287 | 12.0 | 23.0 | 0.00 | 0.02 | 0.00 | 57 | 1004.2 |
| 20260504171103 | 66 | 282 | 6.0 | 15.0 | 0.00 | 0.02 | 0.00 | 58 | 1004.2 |
| 20260504170603 | 66 | 250 | 6.0 | 15.0 | 0.00 | 0.02 | 0.00 | 57 | 1004.3 |
| 20260504151103 | 63 | 278 | 9.0 | 17.0 | 0.00 | 0.02 | 0.00 | 60 | 1005.1 |
| 20260504150603 | 62 | 278 | 12.0 | 20.0 | 0.00 | 0.02 | 0.00 | 57 | 1005.1 |
| 20260504150103 | 63 | 291 | 9.0 | 20.0 | 0.00 | 0.02 | 0.00 | 57 | 1005.1 |
| 20260504140603 | 61 | 278 | 7.0 | 14.0 | 0.00 | 0.02 | 0.00 | 58 | 1005.1 |
| 20260504130603 | 58 | 278 | 7.0 | 20.0 | 0.00 | 0.02 | 0.00 | 61 | 1005.5 |
| 20260504130103 | 58 | 265 | 9.0 | 17.0 | 0.00 | 0.02 | 0.00 | 60 | 1005.6 |
| 20260504081102 | 49 | 248 | 5.0 | 14.0 | 0.00 | 0.03 | 0.00 | 72 | 1006.3 |
| 20260504080603 | 49 | 264 | 5.0 | 12.0 | 0.00 | 0.03 | 0.00 | 72 | 1006.4 |
| 20260504050603 | 52 | 265 | 6.0 | 12.0 | 0.00 | 0.03 | 0.00 | 65 | 1007.9 |
| 20260504050103 | 53 | 269 | 4.0 | 16.0 | 0.00 | 0.03 | 0.00 | 63 | 1007.8 |
| 20260504045603 | 53 | 259 | 6.0 | 12.0 | 0.00 | 0.03 | 0.00 | 62 | 1007.9 |
| 20260504044602 | 53 | 270 | 6.0 | 16.0 | 0.00 | 0.03 | 0.00 | 60 | 1007.9 |
| 20260504044103 | 54 | 261 | 6.0 | 13.0 | 0.00 | 0.03 | 0.00 | 60 | 1007.9 |
| 20260504043603 | 54 | 270 | 5.0 | 23.0 | 0.00 | 0.03 | 0.00 | 59 | 1007.9 |
| 20260504043103 | 54 | 262 | 5.0 | 15.0 | 0.00 | 0.03 | 0.00 | 59 | 1007.9 |
| 20260504042603 | 54 | 277 | 5.0 | 13.0 | 0.00 | 0.03 | 0.00 | 59 | 1007.9 |
| 20260504042103 | 54 | 285 | 6.0 | 13.0 | 0.00 | 0.03 | 0.00 | 59 | 1007.9 |
| 20260504041603 | 54 | 273 | 9.0 | 15.0 | 0.00 | 0.03 | 0.00 | 59 | 1007.9 |
| 20260504041102 | 54 | 280 | 7.0 | 17.0 | 0.00 | 0.03 | 0.00 | 59 | 1007.9 |
| 20260504040602 | 54 | 293 | 7.0 | 16.0 | 0.00 | 0.03 | 0.00 | 59 | 1007.9 |
| 20260504035603 | 54 | 289 | 9.0 | 17.0 | 0.00 | 0.03 | 0.03 | 59 | 1008.0 |
| 20260504035103 | 54 | 299 | 6.0 | 17.0 | 0.00 | 0.03 | 0.03 | 59 | 1008.1 |
| 20260504034602 | 54 | 295 | 6.0 | 15.0 | 0.00 | 0.03 | 0.03 | 59 | 1007.9 |
| 20260504034105 | 54 | 286 | 6.0 | 14.0 | 0.00 | 0.03 | 0.03 | 59 | 1007.9 |
| 20260504033603 | 54 | 273 | 7.0 | 15.0 | 0.00 | 0.03 | 0.03 | 58 | 1007.9 |
| 20260504032604 | 54 | 283 | 6.0 | 13.0 | 0.00 | 0.03 | 0.03 | 59 | 1008.0 |
| 20260504031603 | 54 | 270 | 5.0 | 13.0 | 0.00 | 0.03 | 0.03 | 59 | 1008.0 |
| 20260504031103 | 54 | 294 | 9.0 | 21.0 | 0.00 | 0.03 | 0.03 | 59 | 1008.1 |
| 20260504030603 | 54 | 290 | 9.0 | 16.0 | 0.00 | 0.03 | 0.03 | 58 | 1008.1 |
| 20260504025603 | 54 | 287 | 7.0 | 15.0 | 0.00 | 0.03 | 0.03 | 58 | 1008.1 |
| 20260504025103 | 54 | 285 | 7.0 | 16.0 | 0.00 | 0.03 | 0.03 | 58 | 1008.1 |
| 20260504024603 | 54 | 280 | 10.0 | 17.0 | 0.00 | 0.03 | 0.03 | 59 | 1008.1 |
| 20260504023603 | 54 | 282 | 7.0 | 18.0 | 0.00 | 0.03 | 0.03 | 59 | 1008.1 |
| 20260504023102 | 53 | 291 | 9.0 | 15.0 | 0.00 | 0.03 | 0.03 | 60 | 1008.1 |
| 20260504022603 | 53 | 272 | 6.0 | 12.0 | 0.00 | 0.03 | 0.03 | 60 | 1008.2 |
| 20260504022102 | 53 | 284 | 7.0 | 20.0 | 0.00 | 0.03 | 0.03 | 60 | 1008.1 |
| 20260504021603 | 53 | 284 | 6.0 | 16.0 | 0.00 | 0.03 | 0.03 | 60 | 1008.1 |
| 20260504021103 | 53 | 288 | 8.0 | 16.0 | 0.00 | 0.03 | 0.03 | 60 | 1008.1 |
| 20260504020602 | 53 | 276 | 6.0 | 16.0 | 0.00 | 0.03 | 0.03 | 61 | 1008.2 |
| 20260504020103 | 53 | 291 | 11.0 | 24.0 | 0.00 | 0.03 | 0.03 | 61 | 1008.2 |
| 20260504015603 | 53 | 282 | 7.0 | 15.0 | 0.00 | 0.03 | 0.03 | 61 | 1008.3 |
| 20260504015103 | 53 | 267 | 9.0 | 17.0 | 0.00 | 0.03 | 0.03 | 62 | 1008.2 |
| 20260504014603 | 53 | 293 | 9.0 | 17.0 | 0.00 | 0.03 | 0.03 | 61 | 1008.2 |
| 20260504013603 | 53 | 286 | 7.0 | 16.0 | 0.00 | 0.03 | 0.03 | 62 | 1008.1 |
| 20260504013103 | 53 | 279 | 6.0 | 14.0 | 0.00 | 0.03 | 0.03 | 62 | 1008.1 |
| 20260504012602 | 53 | 296 | 10.0 | 23.0 | 0.00 | 0.03 | 0.03 | 62 | 1008.1 |
| 20260504011603 | 53 | 284 | 6.0 | 17.0 | 0.00 | 0.03 | 0.03 | 63 | 1008.2 |
| 20260504011103 | 53 | 276 | 6.0 | 17.0 | 0.00 | 0.03 | 0.03 | 63 | 1008.1 |
| 20260504010603 | 53 | 285 | 8.0 | 18.0 | 0.00 | 0.03 | 0.03 | 63 | 1008.2 |
| 20260504005603 | 52 | 292 | 8.0 | 18.0 | 0.00 | 0.03 | 0.03 | 65 | 1008.2 |
| 20260504005103 | 52 | 277 | 7.0 | 17.0 | 0.00 | 0.03 | 0.03 | 66 | 1008.2 |
| 20260504004603 | 52 | 276 | 8.0 | 20.0 | 0.00 | 0.03 | 0.03 | 66 | 1008.2 |
| 20260504004103 | 52 | 271 | 6.0 | 12.0 | 0.00 | 0.03 | 0.03 | 68 | 1008.2 |
| 20260504003603 | 51 | 286 | 9.0 | 16.0 | 0.00 | 0.03 | 0.03 | 70 | 1008.2 |
| 20260504003103 | 51 | 293 | 6.0 | 14.0 | 0.00 | 0.03 | 0.03 | 72 | 1008.3 |
| 20260504002602 | 51 | 281 | 4.0 | 14.0 | 0.00 | 0.03 | 0.03 | 74 | 1008.3 |
| 20260504001603 | 50 | 284 | 2.0 | 9.0 | 0.01 | 0.03 | 0.03 | 80 | 1008.3 |
| 20260504001102 | 49 | 280 | 4.0 | 10.0 | 0.01 | 0.03 | 0.03 | 81 | 1008.4 |
| 20260504000602 | 49 | 288 | 5.0 | 8.0 | 0.01 | 0.03 | 0.03 | 84 | 1008.3 |
| 20260503235603 | 49 | 267 | 2.0 | 3.0 | 0.01 | 0.03 | 0.03 | 87 | 1008.4 |
| 20260503235102 | 49 | 241 | 1.0 | 3.0 | 0.01 | 0.03 | 0.03 | 87 | 1008.5 |
| 20260503233603 | 50 | 274 | 0.0 | 1.0 | 0.01 | 0.03 | 0.03 | 87 | 1008.9 |
| 20260503233103 | 50 | 274 | 1.0 | 2.0 | 0.02 | 0.03 | 0.03 | 86 | 1008.9 |
| 20260503231603 | 50 | 270 | 1.0 | 2.0 | 0.01 | 0.02 | 0.02 | 85 | 1009.1 |
| 20260503231103 | 50 | 297 | 1.0 | 3.0 | 0.01 | 0.02 | 0.02 | 85 | 1009.1 |
| 20260503230603 | 50 | 328 | 1.0 | 3.0 | 0.01 | 0.02 | 0.02 | 84 | 1009.0 |
| 20260503225603 | 51 | 262 | 2.0 | 3.0 | 0.01 | 0.02 | 0.02 | 82 | 1009.1 |
| 20260503225104 | 51 | 319 | 3.0 | 7.0 | 0.01 | 0.02 | 0.02 | 81 | 1009.0 |
| 20260503224603 | 51 | 342 | 3.0 | 9.0 | 0.01 | 0.02 | 0.02 | 81 | 1009.1 |
| 20260503224103 | 51 | 346 | 3.0 | 8.0 | 0.01 | 0.02 | 0.02 | 79 | 1009.2 |
| 20260503223603 | 52 | 288 | 4.0 | 10.0 | 0.01 | 0.02 | 0.02 | 78 | 1009.3 |
| 20260503223102 | 52 | 304 | 5.0 | 13.0 | 0.00 | 0.01 | 0.01 | 76 | 1009.3 |
| 20260503222603 | 52 | 307 | 6.0 | 14.0 | 0.00 | 0.01 | 0.01 | 74 | 1009.3 |
| 20260503222103 | 53 | 299 | 7.0 | 14.0 | 0.00 | 0.01 | 0.01 | 72 | 1009.3 |
| 20260503221603 | 53 | 337 | 7.0 | 16.0 | 0.00 | 0.01 | 0.01 | 70 | 1009.1 |
| 20260503221103 | 53 | 313 | 5.0 | 12.0 | 0.00 | 0.01 | 0.01 | 69 | 1009.1 |
| 20260503220603 | 53 | 313 | 9.0 | 16.0 | 0.00 | 0.01 | 0.01 | 68 | 1009.0 |
| 20260503215602 | 53 | 296 | 6.0 | 13.0 | 0.00 | 0.01 | 0.01 | 65 | 1008.8 |
| 20260503215102 | 53 | 276 | 5.0 | 12.0 | 0.00 | 0.01 | 0.01 | 65 | 1008.7 |
| 20260503214603 | 53 | 269 | 7.0 | 14.0 | 0.00 | 0.01 | 0.01 | 65 | 1008.6 |
| 20260503214103 | 53 | 293 | 5.0 | 14.0 | 0.00 | 0.01 | 0.01 | 64 | 1008.5 |
| 20260503213603 | 53 | 280 | 6.0 | 14.0 | 0.00 | 0.01 | 0.01 | 64 | 1008.5 |
| 20260503213103 | 53 | 292 | 7.0 | 15.0 | 0.00 | 0.01 | 0.01 | 64 | 1008.4 |
| 20260503212603 | 53 | 276 | 6.0 | 14.0 | 0.00 | 0.01 | 0.01 | 65 | 1008.4 |
| 20260503212103 | 53 | 265 | 5.0 | 12.0 | 0.00 | 0.01 | 0.01 | 65 | 1008.4 |
| 20260503211603 | 52 | 251 | 6.0 | 13.0 | 0.00 | 0.01 | 0.01 | 65 | 1008.4 |
| 20260503211103 | 52 | 244 | 5.0 | 12.0 | 0.00 | 0.01 | 0.01 | 65 | 1008.4 |
| 20260503210603 | 52 | 273 | 6.0 | 17.0 | 0.00 | 0.01 | 0.01 | 65 | 1008.4 |
| 20260503210104 | 52 | 266 | 6.0 | 15.0 | 0.00 | 0.01 | 0.01 | 64 | 1008.5 |
| 20260503205603 | 52 | 275 | 5.0 | 13.0 | 0.00 | 0.01 | 0.01 | 65 | 1008.5 |
| 20260503204603 | 53 | 281 | 5.0 | 18.0 | 0.00 | 0.01 | 0.01 | 63 | 1008.6 |
| 20260503204103 | 53 | 253 | 6.0 | 13.0 | 0.00 | 0.01 | 0.01 | 64 | 1008.6 |
| 20260503203603 | 53 | 259 | 7.0 | 16.0 | 0.00 | 0.01 | 0.01 | 63 | 1008.7 |
| 20260503203103 | 53 | 284 | 6.0 | 18.0 | 0.00 | 0.01 | 0.01 | 63 | 1008.7 |
| 20260503202602 | 54 | 261 | 5.0 | 12.0 | 0.00 | 0.01 | 0.01 | 61 | 1008.7 |
| 20260503202103 | 54 | 252 | 5.0 | 15.0 | 0.00 | 0.01 | 0.01 | 62 | 1008.7 |
| 20260503201603 | 54 | 281 | 6.0 | 18.0 | 0.00 | 0.01 | 0.01 | 62 | 1008.8 |
| 20260503201103 | 54 | 270 | 6.0 | 16.0 | 0.00 | 0.01 | 0.01 | 60 | 1008.8 |
| 20260503200603 | 55 | 246 | 6.0 | 14.0 | 0.00 | 0.01 | 0.01 | 59 | 1008.9 |
| 20260503200104 | 55 | 266 | 6.0 | 12.0 | 0.00 | 0.01 | 0.01 | 59 | 1009.0 |
| 20260503195603 | 55 | 279 | 6.0 | 12.0 | 0.00 | 0.01 | 0.01 | 60 | 1009.0 |